カタログに戻る

FENGYUN 1C DEB

運用中SSO
NORAD 31524·DEBRIS·🇨🇳 China

打ち上げ May 10, 1999 から Taiyuan Satellite Launch Center

Loading…

次のパス (今後24時間)

TLE

経年Source: Space-Track

元期: Sep 5, 2026, 12:54 UTC

1 31524U 99025BXP 26248.53752581  .00000281  00000-0  13687-3 0  9997
2 31524  99.2475 141.3013 0277765 101.5145  18.5831 14.07616001669044

AllMySatでFENGYUN 1C DEBをリアルタイム追跡

Download on the App Store